Weather History for Carbondale, IL

Change the Weather History Date:

Tuesday, November 20, 2012

  Actual Average Record
Temperature  
Mean Temperature 55 °F -  
Max Temperature 66 °F 58 °F 76 °F (1913)
Min Temperature 44 °F 36 °F 9 °F (1914)
Degree Days  
Heating Degree Days 10    
Growing Degree Days 5 (Base 50)    
Moisture  
Dew Point 44 °F    
Average Humidity 70    
Maximum Humidity 96    
Minimum Humidity 52    
Precipitation  
Precipitation 0.00 in - - ()
Sea Level Pressure  
Sea Level Pressure 30.12 in    
Wind  
Wind Speed 4 mph (West)    
Max Wind Speed 9 mph    
Max Gust Speed -    
Visibility 9 miles    
Events      
Averages and records for this station are not official NWS values.
T = Trace of Precipitation, MM = Missing Value Source: NWS Daily Summary

Daily Weather History Graph

Daily Weather History Graph

Search for Another Location

Airport:

Trip Planner

Search our weather history database for the weather conditions in past years. The results will help you decide how hot, cold, wet, or windy it might be!

Date:

Astronomy

Nov. 20, 2012 Rise Set
Actual Time 6:43 AM CST 4:42 PM CST
Civil Twilight 6:14 AM CST 5:10 PM CST
Nautical Twilight 5:42 AM CST 5:42 PM CST
Astronomical Twilight 5:11 AM CST 6:13 PM CST
Moon 12:21 PM CST (11/20) No Moon Set
Length of Visible Light 10h 55m
Length of Day
9h 59m
First Quarter, 51% of the Moon is Illuminated
Nov 20
First Quarter
Nov 28
Full
Dec 6
Last Quarter
Dec 13
New
Dec 19
First Quarter

Hourly Weather History & Observations

Time (CST) Temp. Windchill Dew Point Humidity Pressure Visibility Wind Dir Wind Speed Gust Speed Precip Events Conditions
12:52 AM 51.1 °F - 43.0 °F 74% 30.14 in 10.0 mi Calm Calm - N/A   Overcast
2:52 AM 55.0 °F - 41.0 °F 59% 30.13 in 10.0 mi SSW 5.8 mph - N/A   Overcast
3:52 AM 55.0 °F - 41.0 °F 59% 30.12 in 10.0 mi SW 5.8 mph - N/A   Overcast
4:52 AM 52.0 °F - 41.0 °F 66% 30.11 in 10.0 mi Calm Calm - N/A   Overcast
5:52 AM 48.0 °F - 39.0 °F 71% 30.12 in 10.0 mi South 3.5 mph - N/A   Clear
6:52 AM 44.1 °F 40.8 °F 39.0 °F 82% 30.12 in 10.0 mi SSE 5.8 mph - N/A   Clear
7:52 AM 50.0 °F - 42.1 °F 74% 30.13 in 10.0 mi SSE 6.9 mph - N/A   Clear
8:52 AM 55.0 °F - 43.0 °F 64% 30.14 in 10.0 mi SW 5.8 mph - N/A   Clear
10:52 AM 61.0 °F - 45.0 °F 56% 30.11 in 10.0 mi WNW 3.5 mph - N/A   Clear
11:52 AM 63.0 °F - 46.0 °F 54% 30.08 in 10.0 mi West 5.8 mph - N/A   Clear
12:52 PM 64.9 °F - 46.9 °F 52% 30.06 in 10.0 mi WSW 4.6 mph - N/A   Clear
1:52 PM 66.0 °F - 48.0 °F 52% 30.05 in 10.0 mi Variable 3.5 mph - N/A   Clear
2:52 PM 64.0 °F - 48.9 °F 58% 30.06 in 10.0 mi North 9.2 mph - N/A   Mostly Cloudy
3:52 PM 63.0 °F - 46.9 °F 56% 30.08 in 10.0 mi NW 9.2 mph - N/A   Partly Cloudy
5:52 PM 54.0 °F - 46.0 °F 75% 30.13 in 10.0 mi NNW 6.9 mph - N/A   Clear
6:52 PM 52.0 °F - 46.0 °F 80% 30.14 in 8.0 mi NNW 5.8 mph - N/A   Clear
7:52 PM 50.0 °F - 46.0 °F 86% 30.16 in 7.0 mi NNW 5.8 mph - N/A   Clear
8:52 PM 48.9 °F - 45.0 °F 86% 30.17 in 5.0 mi NW 3.5 mph - N/A   Partly Cloudy
9:52 PM 48.0 °F - 45.0 °F 89% 30.18 in 5.0 mi NNW 3.5 mph - N/A   Partly Cloudy
10:52 PM 48.9 °F - 46.0 °F 90% 30.18 in 5.0 mi Calm Calm - N/A   Scattered Clouds
11:52 PM 46.0 °F - 45.0 °F 96% 30.18 in 3.0 mi Calm Calm - N/A   Scattered Clouds